VOZ500 YBCG-YSSY

Flight info

Callsign VOZ500
Flight time N/A
Altitude 34000
Route APAGI H91 IGDAM/N0447F350 H652 BOREE
Aircraft B738/M-SDE2E3FGHIRWXY/LB1

Departure

Time N/A
Airport Gold Coast Airport (YBCG)

Arrival

Time 2026-05-06 18:16
Airport Sydney Kingsford Smith International Airport (YSSY)
Time Latitude Longitude Altitude Speed Heading
2026-05-06 18:13 -34.03843 151.19755 1533 ft 166 kts 354°
2026-05-06 18:13 -34.02797 151.19639 1330 ft 161 kts 347°
2026-05-06 18:14 -34.01709 151.19441 1094 ft 159 kts 344°
2026-05-06 18:14 -34.00644 151.19172 915 ft 151 kts 342°
2026-05-06 18:14 -33.99664 151.18953 688 ft 149 kts 345°
2026-05-06 18:14 -33.98669 151.18686 498 ft 145 kts 342°
2026-05-06 18:15 -33.97681 151.18392 276 ft 147 kts 342°
2026-05-06 18:15 -33.96689 151.18135 87 ft 145 kts 343°
2026-05-06 18:15 -33.95756 151.17889 21 ft 128 kts 349°
2026-05-06 18:15 -33.95024 151.17700 19 ft 90 kts 347°
2026-05-06 18:16 -33.94528 151.17571 25 ft 57 kts 347°
2026-05-06 18:16 -33.94209 151.17489 24 ft 43 kts 347°
2026-05-06 18:16 -33.93954 151.17426 17 ft 27 kts
2026-05-06 18:16 -33.93892 151.17569 18 ft 20 kts 74°
2026-05-06 18:17 -33.93855 151.17727 19 ft 17 kts 75°
2026-05-06 18:17 -33.93764 151.17789 25 ft 11 kts 10°
2026-05-06 18:17 -33.93750 151.17792 26 ft 0 kts 10°
2026-05-06 18:17 -33.93749 151.17792 26 ft 1 kts 10°
2026-05-06 18:18 -33.93721 151.17798 29 ft 8 kts 11°
2026-05-06 18:18 -33.93622 151.17819 30 ft 19 kts
2026-05-06 18:18 -33.93530 151.17838 28 ft 13 kts
2026-05-06 18:18 -33.93492 151.17813 30 ft 5 kts 284°
2026-05-06 18:19 -33.93487 151.17785 30 ft 0 kts 280°